BAW96F LOWW-LHBP

Flight info

Callsign BAW96F
Flight time N/A
Altitude 23000
Route ADAMA2C ADAMA Z647 ANEXA ANEXA2H
Aircraft A35K/H-SBDE1E2E3GHIJ1J3J4J5J6M1M2P2RWXYZ/LB1D1

Departure

Time 2026-04-23 17:44
Airport Vienna International Airport (LOWW)

Arrival

Time N/A
Airport Budapest Liszt Ferenc International Airport (LHBP)
Time Latitude Longitude Altitude Speed Heading
2026-04-23 17:21 48.11672 16.56455 629 ft 0 kts 204°
2026-04-23 17:40 48.11655 16.56444 628 ft 9 kts 204°
2026-04-23 17:41 48.11593 16.56406 628 ft 11 kts 200°
2026-04-23 17:41 48.11463 16.56504 632 ft 13 kts 117°
2026-04-23 17:41 48.11418 16.56637 634 ft 16 kts 116°
2026-04-23 17:42 48.11310 16.56970 634 ft 19 kts 116°
2026-04-23 17:42 48.11245 16.57164 635 ft 23 kts 116°
2026-04-23 17:42 48.11171 16.57393 631 ft 27 kts 116°
2026-04-23 17:43 48.11108 16.57588 630 ft 13 kts 117°
2026-04-23 17:43 48.11049 16.57639 625 ft 10 kts 180°
2026-04-23 17:43 48.10987 16.57604 637 ft 10 kts 206°
2026-04-23 17:43 48.10940 16.57529 637 ft 11 kts 256°
2026-04-23 17:44 48.10951 16.57438 634 ft 10 kts 292°
2026-04-23 17:44 48.11059 16.57093 632 ft 74 kts 295°
2026-04-23 17:44 48.11834 16.54542 1324 ft 157 kts 292°
2026-04-23 17:45 48.11706 16.52838 2142 ft 189 kts 250°
2026-04-23 17:45 48.09711 16.50064 3977 ft 193 kts 233°
2026-04-23 17:45 48.08727 16.48687 4787 ft 196 kts 233°
2026-04-23 17:46 48.05981 16.47331 6358 ft 228 kts 178°
2026-04-23 17:46 48.04402 16.47701 7201 ft 232 kts 166°
2026-04-23 17:46 48.02930 16.48839 7782 ft 249 kts 133°
2026-04-23 17:47 48.02092 16.51075 8369 ft 253 kts 95°
2026-04-23 17:47 48.01927 16.53786 8863 ft 273 kts 84°
2026-04-23 17:47 48.01839 16.59656 10695 ft 293 kts 86°
2026-04-23 17:48 48.01757 16.62836 11176 ft 320 kts 87°
2026-04-23 17:48 48.01645 16.66293 11632 ft 345 kts 88°
2026-04-23 17:48 48.01508 16.69929 12500 ft 353 kts 89°
2026-04-23 17:48 48.01360 16.73608 13569 ft 357 kts 89°
2026-04-23 17:49 48.01208 16.77334 14519 ft 362 kts 89°
2026-04-23 17:49 48.01055 16.81126 15369 ft 369 kts 90°
2026-04-23 17:49 48.00900 16.84925 16232 ft 374 kts 90°
2026-04-23 17:49 48.00737 16.88883 17084 ft 380 kts 90°
2026-04-23 17:50 48.00572 16.92858 17980 ft 386 kts 90°
2026-04-23 17:50 48.00233 17.00926 19757 ft 392 kts 90°
2026-04-23 17:50 48.00059 17.04993 20725 ft 393 kts 90°
2026-04-23 17:51 47.99884 17.09078 21550 ft 395 kts 89°
2026-04-23 17:51 47.99710 17.13123 22107 ft 396 kts 89°
2026-04-23 17:51 47.99347 17.21446 23011 ft 401 kts 89°
2026-04-23 17:52 47.99166 17.25515 23058 ft 396 kts 89°
2026-04-23 17:52 47.98772 17.33721 23049 ft 396 kts 91°
2026-04-23 17:52 47.98385 17.37798 23049 ft 397 kts 94°
2026-04-23 17:53 47.97622 17.44611 23047 ft 397 kts 94°
2026-04-23 17:53 47.97163 17.48671 23048 ft 397 kts 94°
2026-04-23 17:53 47.96703 17.52729 23049 ft 397 kts 94°
2026-04-23 17:54 47.96243 17.56794 23045 ft 397 kts 94°
2026-04-23 17:54 47.95783 17.60851 23045 ft 397 kts 94°
2026-04-23 17:54 47.94858 17.68979 23048 ft 399 kts 95°
2026-04-23 17:55 47.93921 17.77159 23041 ft 401 kts 95°
2026-04-23 17:55 47.93450 17.81245 23042 ft 401 kts 95°
2026-04-23 17:55 47.92977 17.85345 23043 ft 401 kts 95°
2026-04-23 17:56 47.92503 17.89433 23035 ft 401 kts 95°
2026-04-23 17:56 47.91556 17.97567 23037 ft 400 kts 95°
2026-04-23 17:56 47.91077 18.01661 23037 ft 401 kts 95°
2026-04-23 17:57 47.90597 18.05749 23047 ft 401 kts 95°
2026-04-23 17:57 47.90115 18.09841 23036 ft 402 kts 95°
2026-04-23 17:57 47.89141 18.18079 23033 ft 404 kts 95°
2026-04-23 17:58 47.88720 18.21616 22951 ft 404 kts 95°
2026-04-23 17:58 47.88227 18.25760 22745 ft 408 kts 95°
2026-04-23 17:58 47.87729 18.29932 22214 ft 408 kts 96°
2026-04-23 17:58 47.87231 18.34077 21616 ft 406 kts 96°
2026-04-23 17:59 47.86734 18.38196 21050 ft 403 kts 96°
2026-04-23 17:59 47.86225 18.42282 20487 ft 401 kts 98°
2026-04-23 17:59 47.85353 18.46238 19960 ft 405 kts 112°
2026-04-23 17:59 47.83774 18.49733 19396 ft 411 kts 130°
2026-04-23 18:00 47.81574 18.52455 18806 ft 414 kts 143°
2026-04-23 18:00 47.79159 18.54785 18190 ft 413 kts 146°
2026-04-23 18:00 47.76739 18.57052 17548 ft 410 kts 146°
2026-04-23 18:00 47.74338 18.59310 16949 ft 406 kts 146°
2026-04-23 18:01 47.71962 18.61556 16347 ft 403 kts 145°
2026-04-23 18:01 47.69627 18.63834 15746 ft 399 kts 142°
2026-04-23 18:01 47.67594 18.66577 15189 ft 392 kts 130°
2026-04-23 18:01 47.65763 18.69551 14614 ft 388 kts 129°
2026-04-23 18:02 47.63972 18.72529 14056 ft 385 kts 129°
2026-04-23 18:02 47.62193 18.75477 13453 ft 382 kts 129°
2026-04-23 18:02 47.60430 18.78387 12854 ft 378 kts 129°
2026-04-23 18:02 47.58682 18.81269 12275 ft 373 kts 129°
2026-04-23 18:03 47.56951 18.84110 11697 ft 370 kts 129°
2026-04-23 18:03 47.55254 18.86885 11457 ft 356 kts 129°
2026-04-23 18:03 47.53628 18.89538 11350 ft 340 kts 129°
2026-04-23 18:03 47.52074 18.92073 11250 ft 325 kts 129°
2026-04-23 18:04 47.50593 18.94496 11122 ft 311 kts 129°
2026-04-23 18:04 47.49171 18.96815 10998 ft 298 kts 129°
2026-04-23 18:04 47.47804 18.99042 10858 ft 288 kts 129°
2026-04-23 18:04 47.46464 19.01226 10573 ft 286 kts 129°
2026-04-23 18:05 47.45130 19.03400 10214 ft 285 kts 129°
2026-04-23 18:05 47.43800 19.05567 9846 ft 286 kts 129°
2026-04-23 18:05 47.42434 19.07803 9575 ft 299 kts 129°
2026-04-23 18:05 47.41025 19.10094 9316 ft 301 kts 129°
2026-04-23 18:06 47.39615 19.12374 8831 ft 301 kts 129°
2026-04-23 18:06 47.38205 19.14653 8375 ft 299 kts 129°
2026-04-23 18:06 47.36807 19.16909 8001 ft 296 kts 128°
2026-04-23 18:06 47.35422 19.19147 7628 ft 295 kts 128°
2026-04-23 18:07 47.34044 19.21374 7264 ft 293 kts 128°
2026-04-23 18:07 47.32676 19.23594 6904 ft 292 kts 128°
2026-04-23 18:07 47.31309 19.25796 6530 ft 290 kts 128°
2026-04-23 18:07 47.29951 19.27980 6160 ft 289 kts 128°
2026-04-23 18:08 47.29032 19.29460 5918 ft 289 kts 128°
2026-04-23 18:08 47.27258 19.32311 5630 ft 277 kts 128°
2026-04-23 18:08 47.25979 19.34360 5468 ft 268 kts 128°
2026-04-23 18:08 47.24740 19.36379 5181 ft 264 kts 126°
2026-04-23 18:09 47.23850 19.38675 4863 ft 254 kts 100°
2026-04-23 18:09 47.23806 19.41169 4559 ft 239 kts 70°
2026-04-23 18:09 47.24525 19.43245 4352 ft 221 kts 45°
2026-04-23 18:09 47.25578 19.44813 4114 ft 213 kts 37°
2026-04-23 18:10 47.26660 19.46245 4006 ft 207 kts 36°
2026-04-23 18:10 47.27741 19.47573 3988 ft 193 kts 29°
2026-04-23 18:10 47.28893 19.48292 4013 ft 170 kts
2026-04-23 18:10 47.30034 19.48227 4009 ft 164 kts 346°
2026-04-23 18:11 47.31041 19.47447 4012 ft 165 kts 325°
2026-04-23 18:11 47.31818 19.46240 3998 ft 161 kts 315°
2026-04-23 18:11 47.32562 19.45026 3994 ft 159 kts 317°
2026-04-23 18:11 47.33310 19.43827 3993 ft 158 kts 317°
2026-04-23 18:12 47.34057 19.42639 3990 ft 157 kts 317°
2026-04-23 18:12 47.34788 19.41477 3993 ft 150 kts 317°
2026-04-23 18:12 47.35482 19.40367 4003 ft 145 kts 317°
2026-04-23 18:12 47.36163 19.39273 3998 ft 145 kts 318°
2026-04-23 18:13 47.36847 19.38170 3994 ft 146 kts 318°
2026-04-23 18:13 47.37566 19.37127 3989 ft 144 kts 328°
2026-04-23 18:13 47.38530 19.36907 3997 ft 150 kts 10°
2026-04-23 18:13 47.39410 19.37928 3989 ft 179 kts 49°
2026-04-23 18:14 47.39697 19.39802 3985 ft 200 kts 86°
2026-04-23 18:14 47.39464 19.41847 3987 ft 204 kts 95°
2026-04-23 18:14 47.39143 19.43890 3988 ft 204 kts 95°
2026-04-23 18:14 47.38802 19.45917 3986 ft 204 kts 96°
2026-04-23 18:15 47.38141 19.47827 3976 ft 217 kts 125°
2026-04-23 18:15 47.37103 19.49443 3971 ft 217 kts 131°
2026-04-23 18:15 47.36017 19.50978 3971 ft 215 kts 133°
2026-04-23 18:15 47.34931 19.52493 3973 ft 215 kts 133°
2026-04-23 18:16 47.33786 19.53916 3968 ft 218 kts 145°
2026-04-23 18:16 47.32348 19.54464 3972 ft 211 kts 184°
2026-04-23 18:16 47.30983 19.53896 3916 ft 200 kts 210°
2026-04-23 18:17 47.29410 19.51127 3630 ft 170 kts 283°
2026-04-23 18:17 47.29825 19.49595 3555 ft 158 kts 309°
2026-04-23 18:17 47.30533 19.48384 3465 ft 155 kts 318°